User: anonymous   Login
Location: NJAA Observatory
(40.6819°N, 74.8979°W)
Time: 13:34:13
(UTC-04:00)
Language:

Iridium 4 - Orbit

View from above orbital plane
View from above orbital plane
View from above satellite
View from above satellite

Ground track
Ground track

The orbit data is extracted from the following two-line orbital elements,

1 24796U 97020E   18113.26496625  .00000111  00000-0  31992-4 0  9991
2 24796  86.4012 188.0393 0002332  95.1155 325.0958 14.35211708 97773
Epoch (UTC): 23 April 2018 06:21:33
Eccentricity: 0.0002332
inclination: 86.4012°
perigee height: 772 km
apogee height: 776 km
right ascension of ascending node: 188.0393°
argument of perigee: 95.1155°
revolutions per day: 14.35211708
mean anomaly at epoch: 325.0958°
orbit number at epoch: 9777

The dashed part of the orbit path shows where the satellite is in the earth's shadow,  

DLR